Milford, UT

12:20 AM MDT on July 24, 2017 (GMT -0600)
Milford Municipal

Weather History for KMLF - March, 2014

Change the Weather History Date:

Monday, March 10, 2014

  Actual Average Record
Temperature  
Mean Temperature 52 °F -  
Max Temperature 66 °F 52 °F 70 °F (2017)
Min Temperature 39 °F 23 °F 12 °F (2009)
Degree Days  
Heating Degree Days 12    
Growing Degree Days 2 (Base 50)    
Moisture  
Dew Point 15 °F    
Average Humidity 25    
Maximum Humidity 49    
Minimum Humidity 4    
Precipitation  
Precipitation 0.00 in - - ()
Sea Level Pressure  
Sea Level Pressure 29.94 in    
Wind  
Wind Speed 19 mph (SSW)    
Max Wind Speed 37 mph    
Max Gust Speed 47 mph    
Visibility 10 miles    
Events      
Averages and records for this station are not official NWS values.
T = Trace of Precipitation, MM = Missing Value Source: NWS Daily Summary

Daily Weather History Graph

Daily Weather History Graph

Search for Another Location

Airport or City:

Trip Planner

Search our weather history database for the weather conditions in past years. The results will help you decide how hot, cold, wet, or windy it might be!

Date:

Astronomy

Mar. 10, 2014 Rise Set
Actual Time 7:50 AM MDT 7:34 PM MDT
Civil Twilight 7:24 AM MDT 8:00 PM MDT
Nautical Twilight 6:53 AM MDT 8:31 PM MDT
Astronomical Twilight 6:22 AM MDT 9:02 PM MDT
Moon 2:24 PM MDT (3/10) 4:02 AM MDT (3/10)
Length of Visible Light 12h 36m
Length of Day
11h 43m
Waxing Gibbous, 70% of the Moon is Illuminated
Mar 10
Waxing Gibbous
Mar 16
Full
Mar 23
Last Quarter
Mar 30
New
Apr 7
First Quarter

Hourly Weather History & Observations

Time (MDT) Temp. Windchill Dew Point Humidity Pressure Visibility Wind Dir Wind Speed Gust Speed Precip Events Conditions
12:52 AM 41.0 °F 33.9 °F 15.1 °F 35% 30.12 in 10.0 mi SW 12.7 mph - N/A   Clear
1:52 AM 46.0 °F 39.0 °F 14.0 °F 28% 30.08 in 10.0 mi SW 17.3 mph - N/A   Clear
2:52 AM 45.0 °F 37.6 °F 15.1 °F 30% 30.06 in 10.0 mi SSW 17.3 mph - N/A   Clear
3:52 AM 43.0 °F 35.1 °F 16.0 °F 34% 30.03 in 10.0 mi SW 17.3 mph - N/A   Clear
4:52 AM 42.1 °F 34.9 °F 16.0 °F 35% 30.01 in 10.0 mi SSW 13.8 mph - N/A   Clear
5:52 AM 39.9 °F 32.9 °F 17.1 °F 40% 30.01 in 10.0 mi SSW 11.5 mph - N/A   Clear
6:52 AM 43.0 °F 36.0 °F 16.0 °F 34% 29.99 in 10.0 mi SW 13.8 mph - N/A   Clear
7:52 AM 46.0 °F 39.6 °F 14.0 °F 28% 29.99 in 10.0 mi South 15.0 mph - N/A   Clear
8:52 AM 42.1 °F 34.2 °F 18.0 °F 38% 30.01 in 10.0 mi SW 16.1 mph - N/A   Clear
9:52 AM 46.0 °F 40.6 °F 17.1 °F 31% 30.00 in 10.0 mi SW 11.5 mph - N/A   Clear
10:52 AM 50.0 °F - 19.0 °F 29% 29.99 in 10.0 mi WSW 6.9 mph - N/A   Clear
11:52 AM 57.0 °F - 12.9 °F 18% 29.95 in 10.0 mi South 21.9 mph 32.2 mph N/A   Clear
12:52 PM 60.1 °F - 12.0 °F 15% 29.93 in 10.0 mi South 28.8 mph 39.1 mph N/A   Clear
1:52 PM 64.0 °F - 8.1 °F 11% 29.88 in 10.0 mi SSW 32.2 mph 43.7 mph N/A   Clear
2:52 PM 64.9 °F - 8.1 °F 11% 29.83 in 10.0 mi South 34.5 mph 47.2 mph N/A   Clear
3:52 PM 64.9 °F - 7.0 °F 10% 29.83 in 10.0 mi SSW 34.5 mph 47.2 mph N/A   Clear
4:52 PM 64.0 °F - 9.0 °F 12% 29.82 in 10.0 mi SSW 36.8 mph 44.9 mph N/A   Clear
5:52 PM 64.0 °F - 10.0 °F 12% 29.81 in 10.0 mi SSW 32.2 mph 40.3 mph N/A   Clear
6:52 PM 60.1 °F - 12.0 °F 15% 29.80 in 10.0 mi SSW 27.6 mph 35.7 mph N/A   Clear
7:52 PM 55.9 °F - 12.9 °F 18% 29.83 in 10.0 mi SSW 19.6 mph - N/A   Clear
8:52 PM 52.0 °F - 14.0 °F 22% 29.86 in 10.0 mi South 11.5 mph - N/A   Scattered Clouds
9:52 PM 51.1 °F - 24.1 °F 35% 29.89 in 10.0 mi NNW 26.5 mph 34.5 mph N/A   Overcast
10:04 PM 48.9 °F - 25.0 °F 39% 29.99 in 9.0 mi North 32.2 mph 40.3 mph N/A   Overcast
10:52 PM 45.0 °F 36.0 °F 26.1 °F 48% 29.95 in 10.0 mi NE 25.3 mph 35.7 mph N/A   Mostly Cloudy
11:52 PM 42.1 °F 32.8 °F 24.1 °F 49% 29.98 in 10.0 mi NNE 21.9 mph - N/A   Clear